Showing default

HERMES-6, 63489

Orbit data source: Space-Track

HERMES-6, 63489 is a payload satellite owned by ASI (IT) in SSO that was launched on Sat, 15 Mar 2025 UTC via an FALCON 9 launch vehicle from the Air Force Western Test Range (AFWTR). Payload-class satellites include a variety of spacecraft equipped with specific instruments for various scientific and technological missions. These include communications satellites like Starlink; space stations such as the ISS; scientific satellites like the Hubble; Earth observation satellites from companies like Planet Labs, Umbra, and HawkEye 360; GPS; miniature CubeSats for education and research; and military/defense satellites.

Loading next visibility...
Identifier
63489, 2025-052BK
Orbit
SSO
Country
Flag of ITIT
Related business
Manufacturer
MILANP/INAFI
Mission
Operational Civil Astronomy
Bus & Motor
CUBESAT 3U, Unknown motor
Mass
5 kg wet, 5 kg dry
Launch date (UTC)
2025-03-15 (1 year ago)
Launch vehicle
FALCON 9
Launch site
Air Force Western Test Range (AFWTR)
Object type
Payload
Rocket body
Debris
Shape & HBR
Box, 1.1 m
Radar Cross Section
0.035 m², Medium (>0.1 m² and < 1m²)

Expand to show TLE details & history
Last TLE update: 10 hours ago

TLE from 10 hours ago
0 HERMES-6
1 63489U 25052BK  26171.42695154  .00005439  00000-0  23296-3 0  9993
2 63489  97.3998  63.8673 0007268 145.2018 214.9695 15.23174143 70323
Epoch: 2026-06-20T10:14Z
TLE epoch observation values (Epoch: 2026-06-20T10:14:48.613Z)
Latitude
-0.00004°
Longitude
1.52302°
Altitude
503.465 km
Speed
7.61 km/s
True Right ascension
04h 15m 28s
True Declination
0° 00' 00"
Sunlit
Object was in daylight at epoch
Visualization orbit readout
Latitude
Unknown
Longitude
Unknown
Altitude
Unknown
Speed
Unknown
Apparent Right ascension
Unknown
Apparent Declination
Unknown
Sunlit
N/A
Visualization observer readout
Local Sidereal Time
07:24:11
Azimuth
Unknown
Elevation
Unknown
Doppler factor
Unknown
Orbital elements
Apogee altitude
498.229 km
Perigee altitude
488.241 km
Semi-major axis
6,871.372 km
Eccentricity
0.00073
Inclination
97.3998°
RAAN
63.8673°
Arg. of periapsis
145.2018°
True anomaly
214.9218°
Mean anomaly
214.9695°
Eccentric anomaly
214.94565°
Mean motion
3.81047 °/min
Orbital period
94.48 mins
BSTAR
0.00023296
Loading maneuver chart data...
Computing Atmospheric mass density...
Loading historical data...
Loading historical data...
Loading historical data...
Loading historical data...
Loading historical data...
Loading historical data...
Loading historical data...

Documentation

Showing up to 5 results
|